Torna al catalogo

STARLINK-11339

AttivoComunicazioniVLEO
NORAD 61691·PAYLOAD·🇺🇸 United States

Lanciato Oct 30, 2024 da Vandenberg Space Force Base

Loading…

Prossimi Passaggi (prossime 24 ore)

TLE

AggiornatoSource: CelesTrak SupGP

Epoca: Sep 14, 2026, 15:01 UTC

1 61691C 24195E   26257.62618056  .00013218  00000+0  10893-3 0  2575
2 61691  53.1566 174.9380 0001004  92.6084  40.4131 15.69692104    14

Traccia STARLINK-11339 in tempo reale con AllMySat

Download on the App Store